• In Hungary
  • List of Countries
  • For 7 days
  • Water Temperature
  • Satellite Maps
  • Weather Map
  • News
  • Weather Widgets
  • user-avatar
    Login

    Hourly Weather Delhi

    Today, 22 October, Sunday

    Time Temperature Precipitation Wind Pressure Humidity
    00:00 +28°C° 0 mm 1 mps 734 mmHg 21%
    01:00 +28°C° 0 mm 1 mps 734 mmHg 21%
    02:00 +27°C° 0 mm 1 mps 734 mmHg 21%
    03:00 +25°C° 0 mm 0 mps 734 mmHg 22%
    04:00 +24°C° 0 mm 0 mps 735 mmHg 22%
    05:00 +24°C° 0 mm 0 mps 734 mmHg 21%
    06:00 +26°C° 0 mm 0 mps 735 mmHg 21%
    07:00 +27°C° 0 mm 0 mps 735 mmHg 20%
    08:00 +28°C° 0 mm 0 mps 736 mmHg 20%
    09:00 +32°C° 0 mm 1 mps 736 mmHg 18%
    10:00 +34°C° 0 mm 1 mps 736 mmHg 16%
    11:00 +37°C° 0 mm 2 mps 736 mmHg 13%
    12:00 +38°C° 0 mm 2 mps 735 mmHg 12%
    13:00 +38°C° 0 mm 2 mps 735 mmHg 11%
    14:00 +39°C° 0 mm 2 mps 734 mmHg 10%
    15:00 +38°C° 0 mm 2 mps 734 mmHg 11%
    16:00 +37°C° 0 mm 2 mps 734 mmHg 12%
    17:00 +35°C° 0 mm 2 mps 733 mmHg 14%
    18:00 +34°C° 0 mm 2 mps 734 mmHg 15%
    19:00 +32°C° 0 mm 2 mps 734 mmHg 17%
    20:00 +30°C° 0 mm 2 mps 734 mmHg 19%
    21:00 +30°C° 0 mm 2 mps 734 mmHg 21%
    22:00 +29°C° 0 mm 2 mps 735 mmHg 24%
    23:00 +28°C° 0 mm 2 mps 735 mmHg 26%

    Tomorrow, 23 October, Monday

    Time Temperature Precipitation Wind Pressure Humidity
    00:00 +28°C° 0 mm 2 mps 735 mmHg 28%
    01:00 +27°C° 0 mm 1 mps 735 mmHg 30%
    02:00 +27°C° 0 mm 1 mps 735 mmHg 31%
    03:00 +26°C° 0 mm 1 mps 735 mmHg 31%
    04:00 +26°C° 0 mm 1 mps 735 mmHg 32%
    05:00 +26°C° 0 mm 1 mps 735 mmHg 32%
    06:00 +26°C° 0 mm 1 mps 736 mmHg 31%
    07:00 +27°C° 0 mm 1 mps 737 mmHg 30%
    08:00 +28°C° 0 mm 1 mps 737 mmHg 29%
    09:00 +30°C° 0 mm 1 mps 738 mmHg 26%
    10:00 +32°C° 0 mm 1 mps 738 mmHg 23%
    11:00 +34°C° 0 mm 1 mps 738 mmHg 19%
    12:00 +35°C° 0 mm 1 mps 737 mmHg 17%
    13:00 +34°C° 0 mm 0 mps 737 mmHg 15%
    14:00 +35°C° 0 mm 0 mps 736 mmHg 13%
    15:00 +34°C° 0 mm 0 mps 736 mmHg 14%
    16:00 +33°C° 0 mm 0 mps 736 mmHg 14%
    17:00 +34°C° 0 mm 1 mps 736 mmHg 15%
    18:00 +33°C° 0 mm 1 mps 736 mmHg 16%
    19:00 +32°C° 0 mm 1 mps 737 mmHg 17%
    20:00 +31°C° 0 mm 1 mps 737 mmHg 18%
    21:00 +30°C° 0 mm 1 mps 737 mmHg 19%
    22:00 +29°C° 0 mm 1 mps 737 mmHg 21%
    23:00 +29°C° 0 mm 1 mps 738 mmHg 22%

    Day after tomorrow, 24 October, Tuesday

    Time Temperature Precipitation Wind Pressure Humidity
    00:00 +28°C° 0 mm 1 mps 737 mmHg 23%
    01:00 +27°C° 0 mm 1 mps 737 mmHg 24%
    02:00 +27°C° 0 mm 1 mps 737 mmHg 24%
    03:00 +26°C° 0 mm 1 mps 737 mmHg 25%
    04:00 +26°C° 0 mm 1 mps 737 mmHg 25%
    05:00 +26°C° 0 mm 1 mps 737 mmHg 25%
    06:00 +26°C° 0 mm 1 mps 738 mmHg 24%
    07:00 +27°C° 0 mm 1 mps 739 mmHg 24%
    08:00 +28°C° 0 mm 1 mps 739 mmHg 23%
    09:00 +30°C° 0 mm 1 mps 739 mmHg 20%
    10:00 +32°C° 0 mm 1 mps 740 mmHg 17%
    11:00 +34°C° 0 mm 1 mps 740 mmHg 14%
    12:00 +35°C° 0 mm 1 mps 739 mmHg 13%
    13:00 +36°C° 0 mm 1 mps 739 mmHg 12%
    14:00 +37°C° 0 mm 2 mps 738 mmHg 10%
    15:00 +36°C° 0 mm 2 mps 738 mmHg 12%
    16:00 +35°C° 0 mm 2 mps 738 mmHg 14%
    17:00 +34°C° 0 mm 2 mps 738 mmHg 16%
    18:00 +32°C° 0 mm 1 mps 738 mmHg 16%
    19:00 +31°C° 0 mm 1 mps 738 mmHg 17%
    20:00 +30°C° 0 mm 1 mps 739 mmHg 18%
    21:00 +29°C° 0 mm 1 mps 739 mmHg 19%
    22:00 +29°C° 0 mm 1 mps 739 mmHg 19%
    23:00 +28°C° 0 mm 1 mps 739 mmHg 20%

    25 October, Wednesday

    Time Temperature Precipitation Wind Pressure Humidity
    00:00 +28°C° 0 mm 1 mps 739 mmHg 20%
    01:00 +27°C° 0 mm 1 mps 739 mmHg 21%
    02:00 +26°C° 0 mm 1 mps 739 mmHg 21%
    03:00 +24°C° 0 mm 0 mps 739 mmHg 22%
    04:00 +24°C° 0 mm 0 mps 739 mmHg 22%
    05:00 +23°C° 0 mm 0 mps 739 mmHg 22%
    06:00 +24°C° 0 mm 0 mps 740 mmHg 22%
    07:00 +27°C° 0 mm 1 mps 740 mmHg 23%
    08:00 +28°C° 0 mm 1 mps 741 mmHg 23%
    09:00 +30°C° 0 mm 1 mps 741 mmHg 20%
    10:00 +32°C° 0 mm 1 mps 741 mmHg 18%
    11:00 +34°C° 0 mm 1 mps 742 mmHg 16%
    12:00 +34°C° 0 mm 1 mps 741 mmHg 14%
    13:00 +35°C° 0 mm 1 mps 740 mmHg 13%
    14:00 +34°C° 0 mm 0 mps 740 mmHg 11%
    15:00 +35°C° 0 mm 1 mps 740 mmHg 13%
    16:00 +34°C° 0 mm 1 mps 739 mmHg 14%
    17:00 +32°C° 0 mm 1 mps 739 mmHg 15%
    18:00 +31°C° 0 mm 2 mps 740 mmHg 17%
    19:00 +30°C° 0 mm 2 mps 740 mmHg 19%
    20:00 +29°C° 0 mm 2 mps 741 mmHg 21%
    21:00 +28°C° 0 mm 2 mps 741 mmHg 24%
    22:00 +28°C° 0 mm 2 mps 741 mmHg 27%
    23:00 +27°C° 0 mm 2 mps 741 mmHg 29%

    26 October, Thursday

    Time Temperature Precipitation Wind Pressure Humidity
    00:00 +26°C° 0 mm 2 mps 740 mmHg 32%
    01:00 +26°C° 0 mm 2 mps 740 mmHg 34%
    02:00 +25°C° 0 mm 2 mps 740 mmHg 36%
    03:00 +25°C° 0 mm 2 mps 740 mmHg 37%
    04:00 +24°C° 0 mm 2 mps 740 mmHg 39%
    05:00 +24°C° 0 mm 2 mps 740 mmHg 41%
    06:00 +25°C° 0 mm 2 mps 740 mmHg 40%
    07:00 +25°C° 0 mm 2 mps 741 mmHg 39%
    08:00 +26°C° 0 mm 2 mps 742 mmHg 39%
    09:00 +28°C° 0 mm 2 mps 742 mmHg 34%
    10:00 +30°C° 0 mm 2 mps 742 mmHg 29%
    11:00 +32°C° 0 mm 2 mps 742 mmHg 24%
    12:00 +34°C° 0 mm 2 mps 741 mmHg 21%
    13:00 +34°C° 0 mm 1 mps 740 mmHg 18%
    14:00 +35°C° 0 mm 1 mps 740 mmHg 16%
    15:00 +34°C° 0 mm 1 mps 740 mmHg 17%
    16:00 +33°C° 0 mm 1 mps 739 mmHg 18%
    17:00 +32°C° 0 mm 2 mps 739 mmHg 20%
    18:00 +31°C° 0 mm 2 mps 740 mmHg 22%
    19:00 +30°C° 0 mm 2 mps 740 mmHg 24%
    20:00 +29°C° 0 mm 3 mps 740 mmHg 27%
    21:00 +28°C° 0 mm 3 mps 740 mmHg 29%
    22:00 +27°C° 0 mm 3 mps 740 mmHg 32%
    23:00 +26°C° 0 mm 3 mps 740 mmHg 35%

    27 October, Friday

    Time Temperature Precipitation Wind Pressure Humidity
    00:00 +26°C° 0 mm 2 mps 740 mmHg 37%
    01:00 +25°C° 0 mm 2 mps 739 mmHg 39%
    02:00 +25°C° 0 mm 2 mps 739 mmHg 41%
    03:00 +25°C° 0 mm 2 mps 739 mmHg 42%
    04:00 +24°C° 0 mm 2 mps 739 mmHg 43%
    05:00 +24°C° 0 mm 2 mps 739 mmHg 45%
    06:00 +25°C° 0 mm 2 mps 740 mmHg 43%
    07:00 +26°C° 0 mm 3 mps 740 mmHg 41%
    08:00 +26°C° 0 mm 3 mps 741 mmHg 40%
    09:00 +28°C° 0 mm 3 mps 741 mmHg 35%
    10:00 +30°C° 0 mm 3 mps 740 mmHg 30%
    11:00 +33°C° 0 mm 3 mps 740 mmHg 24%
    12:00 +34°C° 0 mm 3 mps 740 mmHg 23%
    13:00 +35°C° 0 mm 2 mps 739 mmHg 21%
    14:00 +36°C° 0 mm 2 mps 738 mmHg 19%
    15:00 +35°C° 0 mm 2 mps 738 mmHg 21%
    16:00 +34°C° 0 mm 2 mps 738 mmHg 23%
    17:00 +32°C° 0 mm 2 mps 738 mmHg 25%
    18:00 +31°C° 0 mm 2 mps 738 mmHg 27%
    19:00 +30°C° 0 mm 2 mps 738 mmHg 29%
    20:00 +29°C° 0 mm 2 mps 739 mmHg 31%
    21:00 +28°C° 0 mm 2 mps 739 mmHg 32%
    22:00 +27°C° 0 mm 2 mps 739 mmHg 34%
    23:00 +27°C° 0 mm 2 mps 739 mmHg 36%
    Show more